This demonstration page uses our WeatherBlox Daily Observations layout. Learn more.

Left ArrowRight Arrow

40.92945, -100.16068

Hourly Observations for September 8, 2016

Temp ( °F °C ) Dew Point ( °F °C ) Humidity (%) Winds ( mph kmh ) Pressure ( in mb ) Visibility ( mi km ) Precip ( " mm )
12:15 am 00:15 Clear 65 18.3 63 17.4 95 95 NW 6 9 29.91 1013 7 11 N/A
12:35 am 00:35 Clear with Mist and Fog 64 18 63 17.1 95 95 NW 3 6 29.94 1014 5 8 N/A
12:55 am 00:55 Clear with Mist and Fog 64 18 63 17.1 95 95 NNW 5 7 29.94 1014 5 8 N/A
1:15 am 01:15 Clear 64 18 63 17 94 94 NNW 6 9 29.94 1014 7 11 N/A
1:35 am 01:35 Clear 65 18.2 63 17 93 93 N 6 9 29.94 1014 10 16 N/A
1:55 am 01:55 Clear 65 18.1 62 16.9 93 93 N 5 7 29.94 1014 10 16 N/A
2:15 am 02:15 Clear 65 18.5 62 16.5 88 88 N 6 9 29.94 1014 10 16 N/A
2:35 am 02:35 Clear 64 18 60 15.5 85 85 NNE 6 9 29.94 1014 10 16 N/A
2:55 am 02:55 Clear 64 18 59 15.1 83 83 NNE 8 13 29.94 1014 10 16 N/A
3:15 am 03:15 Clear 64 17.6 59 14.8 84 84 NNE 8 13 29.91 1013 10 16 N/A
3:35 am 03:35 Clear 63 17.4 58 14.4 83 83 NNE 8 13 29.91 1013 10 16 N/A
3:55 am 03:55 Clear 62 16.9 57 14 83 83 NNE 6 9 29.94 1014 10 16 N/A
4:15 am 04:15 Clear 62 16.5 57 13.7 84 84 NNE 5 7 29.94 1014 10 16 N/A
4:35 am 04:35 Clear 61 16.1 56 13.5 85 85 NNE 5 7 29.97 1015 10 16 N/A
4:55 am 04:55 Clear 60 15.8 56 13.3 85 85 Calm 29.97 1015 10 16 N/A
5:15 am 05:15 Clear 60 15.5 55 13 85 85 N 5 7 29.97 1015 10 16 N/A
5:35 am 05:35 Clear 59 15 55 12.6 86 86 Calm 29.97 1015 10 16 N/A
5:55 am 05:55 Clear 59 15.2 54 12.4 84 84 Calm 29.97 1015 10 16 N/A
6:15 am 06:15 Clear 60 15.3 54 12.2 82 82 NNE 6 9 29.97 1015 10 16 N/A
6:35 am 06:35 Clear 59 15.2 54 12.1 82 82 NNE 5 7 29.97 1015 10 16 N/A
6:55 am 06:55 Clear 59 14.9 54 12 83 83 Calm 29.97 1015 10 16 N/A
7:15 am 07:15 Sunny 58 14.6 53 11.8 83 83 Calm 30.00 1016 10 16 N/A
7:35 am 07:35 Sunny 59 15.1 54 12.1 82 82 Calm 30.00 1016 10 16 N/A
7:55 am 07:55 Sunny 59 15.2 54 12.4 84 84 Calm 30.00 1016 10 16 N/A
8:15 am 08:15 Partly Cloudy 60 15.5 55 13 85 85 NE 3 6 30.00 1016 10 16 N/A
8:35 am 08:35 Partly Cloudy 60 15.8 56 13.5 86 86 N 3 6 30.00 1016 10 16 N/A
8:55 am 08:55 Mostly Cloudy 62 16.9 57 14.1 84 84 NE 5 7 29.97 1015 10 16 N/A
9:15 am 09:15 Mostly Cloudy 65 18.3 58 14.5 79 79 E 10 17 29.97 1015 10 16 N/A
9:35 am 09:35 Partly Cloudy 64 18 56 13.5 75 75 E 13 20 29.97 1015 10 16 N/A
9:55 am 09:55 Sunny 64 18 56 13.5 75 75 E 14 22 29.97 1015 10 16 N/A
10:15 am 10:15 Sunny 65 18.6 56 13.3 71 71 E 12 19 29.97 1015 10 16 N/A
10:35 am 10:35 Sunny 67 19.7 56 13.6 68 68 E 12 19 29.97 1015 10 16 N/A
10:55 am 10:55 Partly Cloudy 69 20.6 57 13.9 66 66 ENE 12 19 29.94 1014 10 16 N/A
11:15 am 11:15 Partly Cloudy 69 20.5 57 13.9 66 66 E 10 17 29.94 1014 10 16 N/A
11:35 am 11:35 Sunny 70 21.3 58 14.6 66 66 E 10 17 29.94 1014 10 16 N/A
11:55 am 11:55 Sunny 71 21.7 59 14.9 65 65 ENE 10 17 29.91 1013 10 16 N/A
12:15 pm 12:15 Sunny 73 22.6 59 15.1 63 63 ESE 9 15 29.91 1013 7 11 N/A
12:35 pm 12:35 Sunny 74 23.2 60 15.5 62 62 E 9 15 29.91 1013 7 11 N/A
12:55 pm 12:55 Sunny 74 23.6 61 16 63 63 ESE 10 17 29.88 1012 7 11 N/A
1:15 pm 13:15 Mostly Cloudy with Haze 76 24.3 61 16 60 60 SE 5 7 29.88 1012 3 5 N/A
1:35 pm 13:35 Cloudy 75 23.8 62 16.5 64 64 SE 10 17 29.85 1011 10 16 N/A
1:55 pm 13:55 Cloudy 76 24.6 62 16.6 61 61 SSE 10 17 29.85 1011 10 16 N/A
2:15 pm 14:15 undefined N/A N/A N/A undefined N/A N/A N/A N/A
2:35 pm 14:35 Partly Cloudy with Thunderstorms 78 25.5 64 17.8 62 62 SSE 13 20 29.83 1010 10 16 0.04 1.02
2:55 pm 14:55 Mostly Cloudy 78 25.4 64 18 64 64 SSE 12 19 29.83 1010 10 16 0.04 1.02
3:15 pm 15:15 Partly Cloudy 78 25.7 65 18.5 65 65 SSE 12 19 29.83 1010 10 16 N/A
3:35 pm 15:35 Partly Cloudy 78 25.3 65 18.4 66 66 SSE 13 20 29.80 1009 10 16 N/A
3:55 pm 15:55 Mostly Cloudy 78 25.8 66 18.9 66 66 SSE 14 22 29.80 1009 10 16 0.00 0.00
4:15 pm 16:15 Cloudy 79 26.1 67 19.3 66 66 SE 13 20 29.77 1008 10 16 N/A
4:35 pm 16:35 Cloudy 78 25.7 66 19.1 67 67 SE 9 15 29.80 1009 10 16 N/A
4:55 pm 16:55 Cloudy 77 25 67 19.2 70 70 SSE 8 13 29.80 1009 10 16 N/A
5:15 pm 17:15 Cloudy 77 24.9 67 19.6 72 72 SSE 7 11 29.80 1009 10 16 N/A
5:35 pm 17:35 Cloudy 77 24.8 67 19.6 73 73 SSE 7 11 29.80 1009 10 16 N/A
5:55 pm 17:55 Cloudy 76 24.2 68 19.9 77 77 SSE 6 9 29.80 1009 10 16 N/A
6:15 pm 18:15 Cloudy 75 24 68 19.8 77 77 SSE 6 9 29.80 1009 10 16 N/A
6:35 pm 18:35 Cloudy 75 24 68 19.9 78 78 SE 5 7 29.77 1008 10 16 N/A
6:55 pm 18:55 Cloudy 75 24 68 20 78 78 SE 6 9 29.77 1008 10 16 0.00 0.00
7:15 pm 19:15 Cloudy 75 23.8 68 20.1 80 80 SE 7 11 29.77 1008 10 16 N/A
7:35 pm 19:35 Cloudy 74 23.6 69 20.3 82 82 SE 8 13 29.77 1008 7 11 N/A
7:55 pm 19:55 Cloudy 74 23.5 69 20.5 83 83 SE 9 15 29.77 1008 7 11 N/A
8:35 pm 20:35 Cloudy 73 23 69 20.6 86 86 SE 5 7 29.77 1008 7 11 N/A
8:55 pm 20:55 Cloudy 73 22.8 69 20.8 89 89 SE 6 9 29.77 1008 7 11 N/A
9:15 pm 21:15 Partly Cloudy with Mist and Fog 73 22.5 69 20.5 89 89 SE 6 9 29.77 1008 5 8 N/A
9:35 pm 21:35 Partly Cloudy with Mist and Fog 72 22.2 69 20.5 90 90 SE 6 9 29.77 1008 5 8 N/A
9:55 pm 21:55 Clear with Mist and Fog 72 22 69 20.5 91 91 SE 8 13 29.74 1007 5 8 N/A
10:15 pm 22:15 Clear with Mist and Fog 71 21.7 69 20.3 92 92 SE 8 13 29.77 1008 4 6 N/A
10:35 pm 22:35 Partly Cloudy with Mist and Fog 71 21.5 69 20.3 93 93 SE 6 9 29.80 1009 4 6 N/A
10:55 pm 22:55 Partly Cloudy with Mist and Fog 70 21.2 68 20.1 93 93 Calm 29.80 1009 3 5 N/A
11:15 pm 23:15 Clear with Mist and Fog 70 20.9 68 19.9 94 94 SE 3 6 29.80 1009 3 4 N/A
11:35 pm 23:35 Mostly Cloudy with Mist and Fog 71 21.5 69 20.6 95 95 SE 7 11 29.80 1009 3 4 N/A
11:55 pm 23:55 Cloudy with Mist and Fog 71 21.7 69 20.7 94 94 SSE 7 11 29.80 1009 3 4 N/A

Powered by AerisWeather